Flag for Madagascar Weather past 2 weeks in Toamasina, Madagascar

Now
63 °F

Passing clouds.


Feels Like: 63 °F
Forecast: 66 / 79 °F
Wind: No wind

Location: Tamatave

Current Time: May 28, 2015 at 7:08:29 AM

Latest Report: May 28, 2015 at 6:00 AM


Visibility: N/A

Pressure: 30.09 "Hg

Humidity: 100%

Dew point: 63 °F

Location of ToamasinaLocation

Historic Weather in Toamasina — Graph

°F

Toamasina temperature yesterday

Maximum temperature yesterday: 82 °F (at 12:00 PM)
Minimum temperature yesterday: 68 °F (at 11:00 PM)
Average temperature yesterday: 75 °F

Past Weeks' High & Low Weather Summary

 TemperatureHumidityPressure
High97 °F (May 15, 2:00 PM)100% (May 13, 6:00 AM)30.15 "Hg (May 13, 6:00 AM)
Low64 °F (May 28, 3:00 AM)47% (May 15, 2:00 PM)29.86 "Hg (May 14, 3:00 PM)
Average75 °F87%30.05 "Hg
* Reported May 13 5:00 AM — May 28 5:00 AM, Toamasina, Weather by CustomWeather, © 2015

Note: Actual official high and low records may vary slightly from our data, if they occured in-between our weather recording intervals... More about our weather records

Advertising

Toamasina weather history for previous 24 hours

 ConditionsComfort  
Time TempWeatherWind HumidityBarometerVisibility
5:00 AM
Thu, May 28
64 °FPassing clouds.No wind100%30.09 "HgN/A
4:00 AM64 °FPassing clouds.No wind100%30.09 "HgN/A
3:00 AM64 °FPassing clouds.No wind100%30.09 "HgN/A
2:00 AM66 °FPassing clouds.No wind94%30.09 "HgN/A
1:00 AM66 °FPassing clouds.No wind94%30.12 "HgN/A
12:00 AM66 °FPassing clouds.No wind94%30.12 "HgN/A
11:00 PM
Wed, May 27
68 °FPassing clouds.No wind94%30.12 "HgN/A
10:00 PM70 °FPassing clouds.No wind88%30.12 "HgN/A
9:00 PM70 °FPassing clouds.No wind94%30.12 "HgN/A
8:00 PM72 °FPassing clouds.No wind88%30.12 "HgN/A
7:00 PM73 °FPartly cloudy.No wind89%30.09 "HgN/A
6:00 PM73 °FPassing clouds.No wind89%30.09 "HgN/A
5:00 PM79 °FScattered clouds.5 mph70%30.07 "HgN/A
4:00 PM81 °FPassing clouds.7 mph66%30.07 "HgN/A
3:00 PM81 °FScattered clouds.7 mph66%30.07 "HgN/A
2:00 PM82 °FScattered clouds.7 mph66%30.07 "HgN/A
1:00 PM82 °FScattered clouds.9 mph70%30.09 "HgN/A
12:00 PM82 °FScattered clouds.9 mph70%30.12 "HgN/A
11:00 AM81 °FPartly sunny.7 mph79%30.12 "HgN/A
10:00 AM81 °FBroken clouds.7 mph79%30.12 "HgN/A
9:00 AM79 °FScattered clouds.7 mph84%30.12 "HgN/A
8:00 AM77 °FScattered clouds.5 mph89%30.12 "HgN/A
7:00 AM72 °FPartly sunny.2 mph94%30.09 "HgN/A
Weather by CustomWeather, © 2015

See weather overviewHow to use our weather pages